Content
SEND FEEDBACK

Daily
Averages
Monthly
Summary
United States of America

HARRISBURG, PENNSYLVANIA


Home > North America > United States > Pennsylvania
Elevation: 338 feet     Latitude: 40 13N     Longitude: 076 51W

WEATHER
 
SELECT A DAY
Number of Records: 181,237;   Date Range: 1/1/95 - 12/18/14
 
SHARE

PRINT THIS DATA

[ ← Previous Day ]
WEATHER ALMANAC - FEBRUARY 13, 2013
[ Next Day → ]
[ °C ]   °F
Weather ElementAverageHighLow
Temperature33.3 °F39.9 °F (12:56 pm)24.1 °F (3:56 am)
Dewpoint28.7 °F33.8 °F (8:33 pm)21 °F (3:56 am)
Humidity84.5 %100 % (8:33 pm)58 % (12:56 pm)
Barometer29.79 in29.98 in (1:56 am)29.71 in (5:21 pm)
Wind Speed1.9 mph6.9 mph (11:56 pm)
Weather ElementAverage
Visibility4.6 mi
Wind DirectionENE (62.7 °)

Weather ElementTotal
Precipitation0.42 in
Heating Degree Days33 (Base 65)
Averaged from 37 records on February 13, 2013
WEATHER CONDITIONS BREAKOUT
WIND DIRECTION BREAKOUT
WEATHER BY HOUR - FEBRUARY 13, 2013
[ °C ]   °F
Local TimeTemperatureDewpointHumidityBarometerVisibilityWind DirectionWind SpeedGust SpeedPrecipitationEventsConditions
1:56 AM27.0 °F23.0 °F85 %29.98 in9.0 miCalmClear
2:56 AM27.0 °F23.0 °F85 %29.94 in8.0 miCalmClear
3:56 AM24.1 °F21.0 °F88 %29.93 in8.0 miWSW (240°)4.6 mphClear
4:56 AM25.0 °F21.9 °F88 %29.92 in8.0 miCalmClear
5:56 AM24.1 °F21.9 °F91 %29.92 in6.0 miCalmClear
6:56 AM24.1 °F21.9 °F91 %29.91 in7.0 miCalmClear
7:56 AM28.0 °F25.0 °F88 %29.90 in7.0 miCalmClear
8:56 AM30.9 °F27.0 °F85 %29.88 in7.0 miCalmClear
9:56 AM35.1 °F28.0 °F76 %29.90 in6.0 miCalmHaze
10:56 AM36.0 °F26.1 °F67 %29.88 in9.0 miEast (80°)5.8 mphOvercast
11:56 AM37.9 °F26.1 °F62 %29.85 in10.0 miEast (90°)4.6 mphOvercast
12:56 PM39.9 °F26.1 °F58 %29.79 in10.0 miVariable5.8 mphOvercast
1:56 PM39.9 °F26.1 °F58 %29.77 in10.0 miESE (110°)4.6 mphPartly Cloudy
2:56 PM39.9 °F26.1 °F58 %29.74 in10.0 miESE (110°)4.6 mphOvercast
3:56 PM39.9 °F27.0 °F60 %29.73 in10.0 miEast (90°)3.5 mphOvercast
4:56 PM39.9 °F27.0 °F60 %29.72 in9.0 miENE (70°)4.6 mphOvercast
5:21 PM37.4 °F28.4 °F70 %29.71 in6.0 miEast (100°)5.8 mph0.00 inRainLight Rain
5:34 PM35.6 °F30.2 °F81 %29.71 in2.5 miENE (60°)4.6 mph0.01 inSnowLight Snow
5:45 PM35.6 °F30.2 °F81 %29.71 in2.5 miNorth (360°)3.5 mph0.01 inSnowLight Snow
5:56 PM34.0 °F32.0 °F92 %29.73 in1.2 miCalm0.03 inSnowLight Snow
6:12 PM33.8 °F32.0 °F93 %29.72 in1.2 miCalm0.02 inSnowLight Snow
6:21 PM33.8 °F32.0 °F93 %29.72 in1.2 miCalm0.02 inSnowLight Snow
6:41 PM33.8 °F32.0 °F93 %29.71 in0.8 miCalm0.05 inSnowLight Snow
6:47 PM33.8 °F32.0 °F93 %29.71 in1.0 miCalm0.05 inSnowLight Snow
6:56 PM33.1 °F32.0 °F96 %29.73 in1.0 miCalm0.06 inSnowLight Snow
7:13 PM33.8 °F32.0 °F93 %29.72 in1.5 miCalm0.01 inSnowLight Snow
7:56 PM33.1 °F32.0 °F96 %29.74 in1.5 miCalm0.02 inSnowLight Snow
8:24 PM33.8 °F32.0 °F93 %29.72 in1.5 miCalm0.01 inSnowLight Snow
8:33 PM33.8 °F33.8 °F100 %29.72 in1.5 miCalm0.01 inSnowLight Snow
8:56 PM33.1 °F30.9 °F92 %29.74 in1.2 miCalm0.02 inSnowLight Snow
9:15 PM33.8 °F32.0 °F93 %29.73 in0.8 miCalm0.01 inSnowLight Snow
9:52 PM33.8 °F32.0 °F93 %29.74 in1.0 miCalm0.03 inSnowLight Snow
9:56 PM33.1 °F32.0 °F96 %29.76 in1.0 miCalm0.03 inSnowLight Snow
10:37 PM33.8 °F32.0 °F93 %29.74 in1.5 miWSW (250°)4.6 mph0.01 inSnowLight Snow
10:50 PM33.8 °F32.0 °F93 %29.74 in2.0 miWest (260°)4.6 mph0.01 inSnowLight Snow
10:56 PM33.1 °F32.0 °F96 %29.75 in2.0 miWSW (250°)3.5 mph0.01 inSnowLight Snow
11:56 PM33.1 °F32.0 °F96 %29.77 in3.0 miWSW (250°)6.9 mph0.00 inMostly Cloudy
Hourly data recorded from KCXY, located miles away from Harrisburg, Pennsylvania







STORIES FROM OUR PARTNERS